Vorticity
9 11 12 11 10 9 7 5 5 5 3 5 8 8 11 14 10 5 5 6 7 6 5 5 2 -1 -2 -2 -1 0 1 2 3 4 3 2 2 3 5 7 7 11 13 11 10 10 10 10 10 9 9 9 8 9 9 8 5 6 7 7 6 6 7 7 5 5 6 5 3 4 7 6 4 5 8 8 5 3 6 6 1 3 10 13 7 3 8
11 13 14 12 9 7 5 4 4 4 3 5 8 9 12 14 9 3 4 5 6 6 5 4 2 -0 -1 -1 -1 -0 0 2 2 2 3 2 2 5 7 8 11 12 12 11 10 10 11 10 10 9 10 10 9 10 9 6 5 7 7 7 6 6 8 8 6 5 8 11 7 5 9 8 5 6 9 8 4 3 7 5 0 4 10 13 8 3 7
12 12 12 10 9 6 5 5 4 4 5 7 9 9 12 15 9 3 4 5 4 5 3 2 1 -0 0 -1 -0 1 -0 1 2 1 3 3 4 7 8 10 13 12 10 12 11 11 11 10 10 11 11 10 8 9 8 5 6 7 6 7 6 6 8 10 10 7 8 14 11 6 9 7 5 7 8 6 3 4 7 3 1 6 7 9 12 6 6
12 11 11 10 9 8 6 5 5 6 7 10 10 9 11 16 11 3 2 4 5 5 3 2 -0 -1 1 -0 -1 2 1 1 3 3 3 4 5 9 12 12 13 11 11 12 12 11 10 10 11 11 10 9 8 8 7 6 7 6 6 6 6 7 7 9 13 6 3 9 7 4 5 3 4 8 7 5 2 4 7 1 1 7 5 7 14 9 6
12 11 11 11 10 9 7 6 7 9 11 12 11 9 12 18 14 4 1 2 3 4 3 3 3 1 3 2 -0 3 3 1 3 4 3 7 10 12 12 11 10 10 11 12 11 11 10 10 10 10 9 9 8 7 7 8 7 6 7 6 6 8 6 9 14 5 1 9 6 1 3 2 4 9 6 3 1 5 7 -1 0 8 5 6 13 11 9
12 11 11 11 10 10 8 8 9 11 13 13 10 9 14 19 14 6 3 2 0 2 2 3 5 3 3 4 3 3 4 2 3 5 8 12 13 11 9 9 10 11 12 13 13 12 10 9 9 9 10 9 9 9 8 8 7 6 7 5 6 8 4 6 13 7 4 8 4 1 4 3 5 9 5 2 3 8 6 -1 2 8 5 8 11 10 12
12 11 11 11 10 10 9 11 13 13 14 14 12 13 17 18 12 7 6 4 -0 1 2 1 5 5 2 4 3 3 4 5 8 13 14 13 10 8 9 11 14 15 16 16 15 12 11 11 10 10 11 10 9 9 8 8 7 6 7 5 5 7 2 2 11 10 5 5 5 4 3 4 7 6 3 3 6 8 3 -1 5 6 4 11 11 8 13
11 11 11 10 9 9 9 13 15 14 15 16 15 17 19 17 11 5 5 5 1 0 2 2 3 4 3 4 5 6 10 13 15 15 12 9 9 11 14 16 16 17 16 15 14 12 11 11 11 11 11 10 10 9 8 8 7 6 7 5 4 5 3 2 7 9 6 5 7 5 3 7 7 2 4 6 4 5 3 3 8 6 4 11 11 9 13
10 10 10 9 8 8 8 11 13 12 13 15 15 15 17 17 14 8 4 5 4 4 5 5 6 8 8 10 12 15 16 15 13 11 10 12 14 15 15 16 15 14 13 13 12 11 11 10 10 10 10 9 10 9 8 8 7 7 6 5 4 4 3 3 4 8 8 6 7 7 5 6 3 2 6 4 1 5 6 5 8 5 4 9 10 11 13
10 10 9 9 8 8 8 9 9 9 10 12 12 12 13 14 14 13 11 10 10 11 11 11 12 13 13 14 15 14 13 11 11 13 15 15 14 12 11 12 14 12 11 13 13 11 11 11 9 9 9 9 9 9 9 7 7 7 5 4 5 4 3 3 3 6 6 5 9 10 3 2 5 7 6 2 4 8 6 6 8 4 5 9 9 11 13
10 9 8 9 8 8 8 9 9 9 8 9 10 11 12 12 11 11 14 14 13 13 13 13 13 13 13 13 13 12 12 14 15 14 13 11 9 8 7 8 13 12 11 14 14 11 12 10 8 9 8 8 9 9 9 7 6 7 5 4 6 5 3 4 3 4 5 4 8 8 4 7 10 5 2 4 8 7 3 7 8 3 6 9 9 13 13
9 8 7 7 6 7 8 8 8 10 8 9 12 12 11 12 12 10 11 13 12 11 11 12 11 12 13 13 13 14 14 13 11 9 8 8 7 7 6 8 11 11 12 15 13 11 12 9 8 9 7 8 10 9 8 7 6 6 6 5 6 4 4 4 3 4 6 6 7 8 11 11 3 -2 3 7 6 3 0 5 6 3 7 10 11 15 13
8 6 6 6 5 6 7 7 7 8 6 8 12 13 12 13 15 13 10 11 13 11 10 13 14 13 14 14 12 12 11 7 7 8 7 7 6 6 7 8 9 10 13 16 14 12 12 10 9 9 7 8 9 7 7 8 6 6 7 6 5 4 5 5 4 5 7 7 8 9 8 3 -4 0 9 7 6 7 4 6 8 5 8 11 11 14 12
7 6 6 5 5 5 6 6 6 6 5 6 9 12 13 14 15 13 9 8 14 13 8 11 14 12 11 11 8 8 9 7 8 8 6 5 6 6 7 8 8 9 12 14 14 13 11 11 10 8 7 10 9 5 6 8 8 8 7 5 5 5 6 7 6 6 6 6 7 6 4 2 0 6 11 7 8 8 3 4 8 6 8 11 10 12 11
6 6 5 4 4 5 5 5 6 7 6 6 6 8 14 14 12 11 8 4 10 14 8 6 9 7 6 8 6 6 8 7 8 8 6 5 5 4 7 8 7 9 11 12 13 12 11 12 11 8 8 10 8 6 7 8 8 8 7 6 6 5 7 9 7 5 5 5 7 8 7 5 3 7 10 6 4 3 -0 3 6 4 8 11 11 12 11
5 5 5 4 3 4 4 5 6 6 6 6 4 5 11 13 10 10 8 2 4 11 8 3 4 4 3 5 4 4 6 7 7 8 7 7 6 4 5 7 7 8 10 12 12 11 11 11 9 8 8 8 8 8 8 7 7 7 7 7 7 7 8 8 6 5 5 6 9 9 7 3 3 8 8 2 1 2 2 4 5 4 7 11 13 13 9
5 4 4 4 3 3 4 4 4 4 4 5 4 3 6 9 9 10 9 3 1 7 7 3 3 3 1 2 3 3 5 6 7 8 8 7 7 6 5 7 7 8 9 12 12 11 12 10 8 9 8 7 8 9 7 7 7 7 8 8 8 9 8 6 7 8 6 5 8 9 4 0 4 8 4 -2 -0 3 4 6 8 7 8 13 16 13 8
6 5 3 3 3 3 3 3 3 2 2 3 4 3 3 6 7 9 9 5 2 4 4 1 3 4 2 2 3 2 3 5 5 7 8 8 8 7 7 6 7 8 9 11 12 11 11 10 9 10 8 6 9 9 6 6 6 6 9 9 8 9 8 7 8 8 7 6 7 7 4 2 5 6 -0 -3 3 7 7 8 8 7 8 12 15 14 8
5 4 3 2 2 2 2 2 2 2 2 2 2 2 2 4 5 7 9 7 3 3 3 1 3 4 2 1 3 2 2 3 5 5 7 8 8 8 7 7 7 8 8 10 12 11 11 10 9 10 9 7 8 8 7 7 8 7 7 7 7 8 8 8 8 7 7 6 6 6 6 5 5 2 -1 2 9 11 9 7 6 8 8 8 12 14 10
5 4 4 3 2 1 2 2 2 2 1 2 2 1 1 3 4 6 8 7 5 3 2 1 3 4 3 2 2 3 3 3 4 5 6 8 7 7 8 7 8 8 6 9 11 10 10 10 9 9 10 9 8 8 8 7 9 10 7 6 7 8 7 6 6 7 8 7 7 9 7 5 4 2 3 8 9 7 7 5 5 9 9 7 10 13 12
6 5 4 4 3 1 0 1 1 1 1 1 2 1 1 2 3 5 6 8 8 5 2 2 3 3 3 2 2 3 3 3 4 4 6 8 7 7 7 7 8 9 6 7 10 10 9 11 10 8 9 9 9 9 9 8 8 9 8 7 7 8 9 8 6 6 8 6 6 6 2 0 2 3 4 6 4 3 5 4 3 8 10 9 11 11 12
6 6 5 4 3 1 0 0 0 0 1 1 1 2 2 1 1 3 6 9 10 6 3 3 3 3 3 2 2 3 3 3 4 4 5 8 7 7 7 6 8 11 9 6 8 10 10 11 10 8 8 10 10 8 9 10 9 8 7 8 8 8 8 9 7 6 7 5 4 4 3 2 3 2 1 2 2 3 5 4 3 6 9 11 12 10 11
6 6 6 5 4 2 0 0 0 -0 0 1 1 2 2 1 1 3 5 8 9 7 5 4 2 3 3 1 1 3 3 4 5 4 5 7 7 7 7 6 7 10 11 8 6 8 9 11 11 9 9 10 10 8 8 10 9 9 8 7 8 9 7 8 8 5 5 6 5 5 5 3 2 1 -1 -1 2 3 5 5 4 4 6 11 14 11 10
7 7 6 7 6 3 1 0 0 0 1 1 1 1 1 1 2 3 4 7 8 7 7 5 2 3 3 1 1 3 3 5 5 4 5 7 8 8 7 6 6 9 12 12 8 7 9 10 11 11 10 11 10 8 9 10 8 8 9 6 6 8 7 8 9 5 3 6 6 6 6 4 2 3 2 1 2 3 4 6 5 4 6 11 14 12 11
7 7 7 8 8 5 3 1 -0 0 1 1 1 1 0 1 2 2 4 6 7 7 7 5 3 3 2 1 1 2 4 6 5 4 6 7 8 8 7 6 6 6 10 13 11 8 8 9 10 11 10 11 11 8 10 11 9 8 10 7 7 8 6 6 9 7 5 5 4 6 10 7 2 3 4 2 2 4 7 8 6 5 6 9 12 13 13
7 8 8 8 9 8 5 3 2 1 2 2 1 1 1 2 2 2 4 6 7 7 7 5 4 4 2 1 1 2 5 7 5 4 6 8 9 8 7 7 6 5 8 13 13 10 9 7 9 11 11 10 11 10 10 11 10 10 9 7 8 9 6 5 8 8 6 5 4 5 8 8 5 4 3 1 2 6 8 7 6 6 7 9 12 13 14
6 8 9 9 9 9 7 5 3 2 2 2 2 1 1 2 2 2 4 6 6 7 7 5 3 4 3 1 2 4 6 6 4 4 6 8 9 8 7 8 7 5 7 11 12 11 11 8 8 11 11 10 10 11 10 10 11 11 10 8 8 8 5 5 7 8 6 6 6 4 3 6 8 5 3 2 3 6 8 8 7 8 8 9 12 13 13
5 7 9 10 10 10 9 7 5 3 3 2 1 1 2 3 2 2 4 6 7 7 6 5 4 4 2 1 3 6 7 5 4 4 7 9 9 8 7 8 8 6 6 10 12 12 11 10 8 10 11 10 10 10 9 9 11 12 11 10 8 7 6 5 6 7 7 7 8 6 3 5 6 4 2 2 3 6 8 7 5 5 7 10 12 12 12
5 5 7 9 10 11 11 10 7 5 4 3 2 2 2 2 2 3 4 5 6 6 6 6 5 3 2 3 5 7 6 4 4 5 7 10 9 8 7 8 7 7 7 9 11 12 11 10 10 10 10 10 10 10 9 9 10 11 11 11 10 9 8 6 5 6 7 7 8 8 5 4 5 4 3 2 2 5 6 4 3 5 7 10 12 12 13
4 4 5 7 9 10 11 10 9 7 6 5 4 3 2 1 1 3 4 5 6 7 6 6 4 3 3 5 6 6 4 4 5 6 7 10 9 7 7 8 7 7 8 9 11 12 11 11 11 10 9 10 11 10 9 9 9 9 10 11 11 10 9 8 6 5 5 7 10 9 6 3 4 4 3 1 1 4 5 4 5 6 8 11 11 12 14
3 3 4 5 7 9 10 11 12 10 7 6 4 3 3 2 2 3 5 6 7 7 6 5 4 4 5 6 6 5 4 4 5 6 8 10 9 7 7 8 7 7 8 9 10 11 12 12 12 9 8 9 10 10 8 9 10 9 9 10 11 10 9 9 8 6 5 5 8 9 8 6 4 3 3 3 3 5 6 5 5 6 8 11 11 11 13
3 3 4 5 6 9 10 11 11 10 7 6 5 4 4 4 4 5 6 7 7 6 5 5 5 5 6 6 4 3 4 5 6 7 9 9 8 7 8 8 7 7 9 10 10 11 11 12 12 10 8 9 10 9 8 8 9 9 8 9 11 10 9 9 9 8 7 5 5 6 8 7 5 4 4 3 3 5 5 5 5 6 7 9 10 10 11
3 2 3 6 8 10 11 11 10 8 7 6 6 4 4 4 4 6 7 7 7 6 5 6 6 6 6 4 3 3 5 6 7 9 10 9 7 7 8 8 7 8 10 10 10 10 11 13 13 10 9 9 9 8 8 8 9 9 9 9 10 9 9 10 10 9 7 7 7 6 6 6 5 4 3 1 2 4 6 4 4 4 6 9 11 11 11
3 3 6 10 11 11 11 10 9 8 7 6 6 5 5 5 6 7 7 7 7 7 6 7 7 6 4 3 3 4 6 7 8 9 9 7 6 7 8 8 7 8 10 10 9 10 12 13 12 10 9 9 8 8 8 8 8 9 9 9 9 8 8 10 10 9 8 8 8 8 7 6 4 3 2 2 2 4 5 4 4 5 8 11 12 11 11
5 8 11 12 11 11 10 9 8 7 6 5 6 5 5 6 6 6 7 7 7 7 7 7 5 4 3 3 4 6 7 7 9 9 7 6 7 8 8 8 8 10 11 10 9 11 12 12 11 10 10 9 8 8 7 7 8 8 9 9 9 7 7 8 11 11 10 8 7 7 8 6 4 3 3 3 3 4 5 5 5 6 9 12 12 11 11
11 13 12 10 9 10 9 8 7 6 6 6 6 5 6 6 6 6 7 7 7 6 6 5 3 2 3 4 6 7 8 8 8 7 6 6 7 8 8 7 8 11 11 10 10 11 12 11 11 11 10 9 9 8 6 6 8 9 9 9 9 7 6 7 10 11 11 8 7 6 7 6 4 3 4 5 4 5 6 6 6 8 10 12 12 10 11
14 11 9 9 9 10 9 8 7 6 6 6 6 6 6 6 6 7 7 6 6 6 5 3 2 2 4 6 7 8 8 8 8 6 5 7 8 8 7 8 9 11 11 9 10 11 11 10 11 12 10 9 9 8 5 6 7 8 9 9 10 9 7 7 8 9 9 8 7 6 5 6 4 3 5 6 6 6 7 6 7 9 10 10 10 10 11
9 8 8 8 9 9 8 7 6 5 6 6 5 5 6 6 6 7 6 6 5 4 3 2 3 4 5 7 9 9 8 8 7 6 6 8 9 7 7 8 9 11 11 10 10 11 11 10 11 12 10 9 8 8 6 6 7 7 9 10 10 10 9 8 8 8 7 6 5 5 5 5 3 2 4 5 6 6 6 6 7 10 11 10 9 10 11
7 7 7 7 8 8 7 6 5 5 5 5 5 5 6 6 6 6 5 5 4 3 2 3 4 6 8 9 9 9 8 7 6 6 7 8 8 7 7 8 9 10 11 10 10 10 10 11 11 12 10 9 8 7 6 7 6 7 9 10 10 10 10 9 8 8 8 7 6 6 5 4 2 2 3 4 5 6 5 5 7 11 11 10 8 9 12
6 6 6 7 7 7 5 5 5 5 5 5 5 6 6 5 5 5 4 3 3 3 4 6 6 8 10 10 9 9 8 6 6 7 7 7 7 7 7 8 9 9 10 10 10 9 10 11 12 11 10 9 8 6 6 8 8 7 8 10 10 9 10 9 8 8 9 8 7 7 7 5 3 2 3 4 5 5 4 5 9 12 11 9 8 9 12
6 6 7 8 7 6 5 5 4 5 5 5 5 5 5 4 4 4 3 3 3 4 6 8 8 9 10 9 8 8 7 6 6 7 7 7 6 7 8 8 8 10 11 10 9 9 10 11 11 11 10 9 7 6 7 9 9 7 8 10 10 9 9 9 9 8 8 8 8 8 7 5 4 3 3 4 5 5 4 6 10 11 10 9 9 9 13
9 9 9 9 8 6 5 4 5 5 5 5 4 4 4 4 3 3 3 4 6 7 8 9 10 10 9 8 8 7 7 7 6 6 6 7 6 6 8 8 8 10 11 10 9 9 9 10 11 11 10 8 6 6 6 8 10 10 8 8 9 9 8 9 10 9 8 8 8 7 6 5 5 4 4 4 5 5 4 7 10 10 9 9 10 11 14
12 12 11 9 8 6 5 5 6 5 4 4 4 4 4 4 4 4 5 6 7 8 9 10 10 10 8 7 7 7 7 7 6 5 6 7 5 6 8 9 8 9 10 9 9 9 9 9 10 11 10 7 5 5 6 8 10 11 9 7 8 8 8 8 10 10 8 8 7 6 5 5 6 5 5 5 5 4 5 8 10 10 8 9 11 13 15
12 12 11 9 8 7 5 5 5 4 3 4 5 4 4 6 6 6 7 8 8 10 11 10 9 8 7 7 7 7 7 6 5 5 6 6 5 7 9 9 8 9 9 8 8 8 8 10 11 12 10 7 5 6 7 8 9 11 10 8 7 8 8 8 9 10 9 8 6 6 5 6 6 6 6 5 4 4 6 10 11 9 8 9 11 15 16
11 10 9 8 7 7 6 5 6 5 5 6 6 6 7 8 8 8 9 10 10 10 10 9 8 7 7 7 7 7 6 6 6 6 6 5 6 8 9 8 8 9 8 6 6 8 9 11 12 12 10 7 5 6 7 7 8 10 10 9 8 8 8 8 9 9 9 7 6 5 6 6 6 7 7 6 5 5 8 10 10 9 8 10 12 15 16
9 9 9 8 8 8 7 6 7 7 7 7 7 7 8 9 9 10 10 10 10 10 9 8 7 7 7 8 7 6 6 6 6 5 5 6 7 8 9 9 9 8 6 6 7 8 9 11 12 12 9 6 5 7 7 7 8 9 9 9 8 7 8 9 9 8 8 7 5 5 6 6 6 7 7 6 5 7 9 11 10 8 9 12 14 15 16
8 9 9 8 8 8 7 7 8 8 8 7 8 9 10 10 10 10 10 9 9 9 8 7 8 8 8 7 7 6 6 6 6 5 5 6 7 8 9 9 9 7 6 7 7 8 9 12 13 11 7 5 6 7 7 7 9 9 9 8 8 8 8 9 8 7 7 6 5 5 6 6 6 7 7 7 7 9 10 11 9 8 10 13 16 17 16
8 9 9 8 8 9 8 8 8 8 8 8 9 10 11 11 10 10 9 9 8 7 7 8 8 8 8 7 7 6 6 6 5 5 5 7 8 9 9 9 8 7 7 7 7 8 10 11 12 10 6 5 7 8 7 7 9 10 9 8 7 7 8 8 8 8 7 6 5 5 6 6 7 7 6 6 8 10 11 10 9 9 11 13 16 18 19
11 11 10 8 9 9 8 8 8 8 8 9 10 10 10 10 10 9 8 8 7 7 8 9 8 7 7 7 6 6 6 6 5 6 6 7 8 8 8 8 8 8 7 7 8 10 10 11 11 9 6 5 7 8 8 7 8 9 9 8 7 7 7 8 8 9 7 5 5 6 6 6 7 7 5 6 9 11 12 10 8 10 13 15 16 19 21
12 11 10 9 9 8 8 8 8 8 8 8 9 9 9 9 9 8 7 7 7 8 8 8 8 7 7 6 6 6 6 5 6 6 7 7 8 8 8 8 8 8 7 7 9 10 10 9 9 9 7 6 8 8 7 7 8 9 9 8 7 7 7 8 9 9 8 5 5 6 6 7 7 6 6 7 9 11 11 10 8 11 15 16 17 21 24
12 11 10 10 9 8 8 8 7 7 8 8 8 9 9 8 8 8 7 7 8 8 8 8 8 7 6 6 6 6 6 6 6 6 7 7 7 8 8 8 8 8 8 9 10 11 9 7 8 8 7 7 8 8 7 8 8 9 9 8 6 7 8 8 8 8 8 6 5 6 7 7 7 6 7 9 10 10 9 8 9 13 16 17 19 24 26
11 10 10 9 8 7 7 7 6 7 7 8 8 8 8 7 7 7 7 7 8 8 8 8 7 6 6 6 6 6 6 6 5 6 7 7 7 7 8 9 9 8 8 10 12 11 7 6 7 8 7 7 8 7 7 9 10 9 7 7 7 8 9 8 7 7 8 7 6 7 7 7 7 7 8 9 10 9 7 7 10 14 18 19 21 25 28
Height
5834 5834 5833 5833 5833 5833 5833 5833 5833 5832 5832 5832 5832 5831 5830 5829 5829 5828 5828 5828 5828 5828 5827 5826 5825 5825 5823 5823 5821 5820 5818 5816 5814 5812 5809 5806 5803 5800 5796 5793 5790 5786 5783 5780 5776 5773 5770 5768 5765 5762 5759 5756 5753 5749 5746 5742 5739 5735 5731 5728 5724 5720 5717 5714 5712 5709 5704 5698 5693 5687 5681 5674 5669 5662 5656 5650 5642 5636 5629 5620 5613 5608 5600 5589 5579 5571 5570
5835 5835 5835 5834 5834 5834 5834 5834 5834 5834 5834 5833 5833 5832 5831 5830 5830 5830 5829 5829 5829 5828 5827 5827 5826 5825 5824 5823 5821 5820 5818 5815 5813 5811 5808 5805 5801 5798 5795 5791 5788 5785 5781 5778 5775 5772 5769 5766 5764 5761 5757 5754 5751 5747 5744 5740 5737 5733 5729 5725 5721 5717 5712 5707 5704 5703 5699 5695 5690 5684 5678 5672 5665 5658 5651 5645 5638 5631 5624 5616 5609 5603 5596 5585 5571 5561 5561
5837 5837 5836 5836 5836 5836 5836 5836 5835 5835 5835 5834 5833 5833 5832 5831 5831 5831 5830 5830 5830 5829 5828 5827 5827 5826 5824 5823 5821 5819 5817 5815 5812 5809 5806 5803 5799 5796 5793 5789 5786 5783 5780 5777 5774 5771 5768 5765 5762 5759 5755 5752 5749 5746 5742 5739 5735 5731 5727 5724 5719 5714 5709 5703 5697 5691 5686 5682 5677 5671 5667 5663 5657 5651 5644 5638 5632 5625 5618 5610 5602 5595 5590 5584 5568 5552 5549
5838 5838 5838 5838 5837 5837 5837 5837 5837 5836 5835 5835 5834 5833 5833 5832 5832 5832 5831 5831 5830 5830 5829 5828 5827 5826 5824 5822 5821 5818 5816 5813 5811 5808 5804 5801 5798 5795 5792 5788 5785 5781 5778 5775 5772 5770 5767 5763 5760 5757 5754 5751 5747 5744 5740 5737 5733 5730 5726 5722 5717 5712 5707 5701 5695 5689 5682 5677 5673 5666 5661 5657 5651 5645 5638 5633 5627 5619 5610 5603 5596 5586 5577 5575 5566 5547 5534
5840 5839 5839 5839 5839 5839 5839 5838 5838 5837 5836 5835 5835 5834 5834 5833 5832 5832 5832 5831 5831 5830 5829 5828 5827 5825 5824 5822 5820 5817 5815 5812 5809 5806 5803 5800 5797 5794 5791 5787 5784 5781 5778 5775 5772 5768 5765 5762 5759 5756 5752 5749 5746 5742 5738 5735 5731 5728 5724 5720 5716 5710 5705 5700 5694 5689 5683 5677 5672 5666 5660 5654 5648 5641 5634 5629 5623 5614 5605 5597 5591 5579 5565 5560 5557 5545 5529
5841 5841 5840 5840 5840 5840 5840 5839 5838 5837 5836 5836 5835 5835 5834 5833 5833 5833 5832 5832 5831 5830 5829 5828 5826 5825 5823 5821 5819 5816 5813 5810 5807 5804 5801 5799 5796 5793 5790 5787 5784 5781 5778 5775 5771 5767 5764 5761 5757 5754 5751 5747 5744 5740 5737 5733 5729 5726 5722 5718 5714 5709 5704 5699 5693 5688 5682 5677 5672 5666 5659 5652 5645 5638 5632 5625 5618 5611 5602 5592 5583 5574 5562 5550 5544 5538 5526
5842 5842 5842 5842 5841 5841 5841 5840 5839 5838 5837 5837 5836 5835 5834 5834 5833 5833 5832 5832 5831 5830 5829 5827 5826 5824 5822 5820 5817 5814 5812 5809 5806 5804 5801 5798 5796 5792 5789 5786 5783 5780 5777 5774 5771 5767 5764 5760 5757 5753 5749 5746 5742 5738 5734 5731 5727 5723 5719 5715 5711 5706 5701 5696 5692 5687 5681 5676 5670 5663 5656 5649 5642 5636 5629 5621 5613 5607 5598 5587 5577 5569 5561 5550 5539 5532 5525
5844 5844 5843 5843 5843 5842 5842 5841 5840 5839 5838 5837 5836 5835 5835 5834 5834 5833 5833 5832 5831 5830 5828 5827 5825 5823 5820 5818 5816 5813 5810 5808 5805 5803 5801 5798 5795 5792 5788 5785 5782 5779 5775 5772 5769 5766 5762 5759 5756 5752 5748 5744 5740 5736 5732 5728 5724 5720 5716 5712 5707 5703 5698 5693 5689 5685 5679 5673 5668 5661 5654 5646 5640 5634 5627 5618 5610 5603 5593 5582 5571 5561 5554 5548 5538 5528 5521
5846 5845 5845 5845 5844 5843 5843 5842 5841 5840 5839 5838 5837 5836 5835 5835 5834 5834 5833 5832 5831 5829 5828 5826 5824 5822 5819 5817 5814 5812 5810 5808 5805 5803 5800 5797 5794 5791 5787 5784 5780 5777 5774 5770 5767 5763 5760 5757 5753 5750 5746 5742 5737 5733 5729 5725 5720 5716 5712 5708 5704 5700 5696 5691 5686 5682 5677 5670 5664 5659 5652 5644 5637 5631 5625 5617 5608 5599 5590 5579 5567 5553 5544 5537 5529 5517 5507
5847 5847 5846 5846 5845 5844 5844 5843 5842 5841 5840 5839 5838 5837 5836 5835 5834 5834 5833 5832 5830 5828 5827 5825 5823 5821 5818 5816 5814 5812 5810 5807 5805 5802 5799 5796 5793 5789 5786 5782 5779 5776 5772 5769 5765 5762 5758 5755 5751 5747 5743 5739 5735 5730 5726 5722 5717 5713 5709 5705 5701 5696 5692 5687 5681 5677 5673 5667 5661 5654 5647 5641 5634 5625 5617 5610 5603 5596 5589 5579 5565 5552 5539 5527 5517 5509 5500
5848 5848 5847 5847 5846 5845 5845 5844 5843 5842 5841 5840 5839 5838 5837 5836 5835 5834 5832 5831 5829 5828 5826 5824 5822 5820 5818 5816 5814 5812 5809 5807 5804 5801 5798 5795 5791 5788 5784 5781 5778 5774 5771 5768 5764 5761 5757 5753 5749 5745 5741 5737 5732 5727 5723 5719 5715 5710 5706 5702 5698 5692 5687 5681 5675 5670 5666 5662 5657 5652 5644 5635 5626 5618 5608 5600 5593 5586 5581 5573 5559 5548 5542 5534 5523 5513 5503
5850 5849 5849 5848 5847 5847 5846 5845 5844 5843 5842 5842 5840 5838 5837 5836 5835 5834 5832 5830 5829 5827 5825 5823 5821 5819 5817 5815 5813 5811 5809 5806 5803 5800 5797 5793 5790 5786 5783 5780 5776 5773 5770 5766 5762 5758 5755 5751 5747 5743 5739 5734 5730 5725 5720 5716 5712 5708 5703 5698 5693 5688 5683 5677 5671 5665 5659 5653 5648 5642 5635 5626 5619 5613 5603 5595 5588 5581 5579 5577 5564 5547 5539 5533 5522 5510 5498
5851 5851 5850 5849 5849 5848 5847 5847 5846 5845 5844 5843 5841 5839 5838 5837 5835 5833 5832 5830 5829 5827 5825 5823 5821 5820 5818 5815 5813 5811 5808 5805 5802 5799 5796 5792 5788 5785 5782 5778 5775 5772 5768 5764 5761 5757 5753 5749 5744 5740 5736 5731 5727 5722 5718 5713 5709 5705 5700 5695 5689 5684 5678 5672 5666 5660 5654 5647 5640 5633 5626 5621 5616 5609 5599 5590 5584 5574 5566 5565 5558 5540 5526 5516 5507 5500 5490
5852 5852 5851 5850 5850 5849 5849 5848 5847 5846 5845 5843 5841 5840 5838 5837 5835 5833 5832 5830 5828 5827 5825 5823 5822 5820 5817 5815 5813 5810 5807 5804 5801 5798 5794 5791 5787 5784 5780 5777 5773 5770 5767 5763 5759 5755 5751 5746 5742 5737 5733 5728 5724 5719 5715 5711 5706 5701 5696 5691 5685 5680 5674 5668 5662 5655 5647 5641 5637 5632 5626 5617 5610 5603 5592 5580 5571 5561 5548 5544 5542 5531 5517 5505 5497 5490 5482
5853 5853 5852 5852 5851 5850 5850 5849 5848 5847 5845 5843 5842 5841 5839 5837 5835 5834 5832 5831 5829 5827 5825 5824 5822 5820 5817 5815 5812 5809 5806 5803 5800 5797 5793 5790 5786 5782 5779 5775 5772 5768 5764 5761 5757 5753 5749 5744 5740 5736 5731 5727 5723 5718 5714 5709 5704 5699 5693 5687 5682 5677 5670 5664 5657 5651 5644 5636 5630 5624 5617 5608 5600 5595 5588 5575 5565 5557 5547 5541 5537 5528 5515 5504 5494 5484 5475
5854 5854 5853 5852 5852 5851 5851 5850 5848 5847 5845 5844 5843 5841 5839 5838 5836 5835 5833 5831 5830 5828 5826 5824 5822 5820 5817 5814 5811 5808 5805 5802 5799 5796 5792 5789 5785 5781 5777 5774 5770 5766 5762 5758 5754 5751 5747 5742 5738 5734 5730 5726 5721 5716 5712 5707 5702 5696 5690 5684 5679 5673 5667 5661 5654 5648 5641 5634 5626 5617 5607 5599 5591 5585 5580 5572 5561 5552 5543 5537 5536 5531 5519 5504 5490 5477 5466
5855 5854 5854 5853 5852 5852 5851 5850 5849 5847 5846 5845 5843 5841 5840 5839 5837 5836 5834 5832 5830 5829 5826 5824 5822 5819 5817 5814 5811 5808 5804 5801 5798 5794 5791 5787 5783 5780 5776 5772 5768 5764 5760 5756 5752 5748 5744 5740 5736 5731 5727 5723 5719 5714 5709 5704 5699 5694 5688 5682 5677 5670 5665 5660 5653 5646 5639 5632 5626 5618 5607 5598 5589 5580 5573 5568 5560 5550 5539 5528 5521 5517 5509 5495 5479 5465 5454
5855 5855 5854 5854 5853 5853 5852 5851 5849 5848 5847 5845 5844 5842 5841 5840 5838 5836 5834 5832 5830 5829 5827 5824 5822 5819 5816 5813 5810 5807 5803 5800 5797 5793 5790 5786 5782 5778 5774 5770 5766 5762 5758 5754 5750 5745 5741 5737 5733 5729 5724 5720 5716 5711 5706 5701 5695 5690 5685 5679 5674 5668 5662 5656 5649 5643 5636 5629 5623 5616 5606 5597 5589 5581 5571 5563 5557 5549 5537 5520 5505 5495 5489 5482 5471 5457 5445
5855 5855 5855 5854 5854 5853 5852 5851 5850 5849 5847 5846 5844 5843 5842 5840 5838 5836 5834 5832 5830 5829 5826 5824 5821 5818 5815 5812 5809 5806 5803 5799 5796 5792 5789 5785 5781 5777 5773 5768 5764 5760 5756 5752 5748 5743 5739 5735 5731 5726 5721 5717 5712 5707 5702 5697 5691 5686 5680 5675 5669 5663 5657 5651 5644 5637 5631 5624 5618 5613 5605 5594 5587 5581 5571 5558 5546 5536 5525 5513 5499 5485 5475 5470 5464 5452 5439
5855 5855 5855 5854 5854 5853 5852 5851 5850 5849 5847 5846 5845 5844 5842 5840 5838 5836 5834 5832 5830 5829 5826 5823 5820 5817 5814 5811 5808 5805 5802 5798 5795 5791 5787 5783 5779 5775 5771 5767 5763 5758 5754 5750 5746 5741 5737 5732 5728 5723 5718 5714 5709 5704 5699 5693 5688 5682 5675 5669 5663 5657 5651 5645 5637 5631 5625 5617 5608 5600 5593 5583 5574 5567 5560 5548 5536 5524 5513 5504 5495 5482 5470 5461 5457 5449 5436
5855 5855 5854 5854 5853 5853 5852 5851 5850 5849 5847 5846 5845 5844 5842 5840 5838 5835 5833 5832 5830 5828 5825 5822 5819 5816 5813 5810 5807 5804 5801 5797 5794 5790 5786 5782 5778 5773 5769 5765 5760 5756 5752 5748 5743 5739 5734 5729 5725 5720 5715 5710 5705 5700 5694 5689 5683 5678 5672 5665 5659 5653 5647 5641 5633 5625 5617 5609 5601 5593 5586 5578 5569 5558 5549 5540 5532 5523 5512 5501 5491 5482 5470 5458 5451 5445 5435
5855 5854 5854 5853 5853 5852 5852 5851 5849 5848 5847 5846 5845 5843 5841 5839 5837 5835 5834 5832 5830 5827 5824 5821 5819 5816 5812 5809 5806 5803 5799 5796 5792 5788 5784 5780 5776 5772 5767 5763 5758 5754 5750 5745 5741 5736 5731 5727 5722 5717 5712 5707 5702 5696 5691 5685 5680 5674 5668 5662 5655 5649 5643 5638 5633 5625 5617 5609 5602 5596 5588 5578 5567 5557 5548 5540 5533 5524 5514 5504 5494 5484 5473 5460 5448 5441 5433
5854 5854 5853 5853 5852 5852 5851 5850 5849 5848 5847 5846 5844 5843 5841 5839 5837 5835 5833 5831 5828 5826 5823 5820 5817 5814 5811 5808 5805 5802 5798 5794 5791 5787 5783 5779 5774 5770 5766 5761 5756 5752 5748 5743 5739 5734 5729 5724 5719 5714 5709 5704 5698 5693 5688 5683 5677 5671 5665 5659 5652 5646 5640 5635 5630 5625 5620 5613 5604 5597 5590 5580 5570 5562 5553 5544 5534 5525 5515 5508 5500 5490 5479 5466 5452 5441 5432
5854 5853 5853 5852 5852 5851 5850 5849 5848 5847 5846 5845 5844 5842 5840 5838 5837 5835 5832 5830 5827 5824 5822 5819 5816 5813 5810 5807 5803 5800 5796 5793 5789 5786 5782 5777 5773 5768 5764 5759 5755 5750 5746 5741 5737 5732 5727 5722 5717 5712 5706 5701 5695 5690 5684 5679 5673 5668 5662 5655 5649 5643 5637 5631 5625 5619 5614 5610 5603 5595 5588 5580 5572 5566 5559 5550 5543 5534 5523 5513 5504 5495 5484 5472 5457 5443 5433
5853 5852 5852 5851 5851 5850 5849 5848 5847 5846 5845 5844 5843 5841 5839 5838 5836 5833 5831 5828 5826 5823 5821 5818 5815 5811 5808 5806 5802 5799 5795 5791 5788 5784 5780 5775 5771 5766 5762 5757 5753 5748 5744 5739 5734 5730 5724 5719 5714 5709 5703 5698 5693 5687 5681 5676 5670 5664 5658 5652 5646 5640 5633 5627 5622 5615 5608 5603 5599 5594 5586 5577 5568 5560 5554 5548 5542 5536 5526 5515 5504 5495 5485 5475 5463 5448 5434
5852 5852 5851 5850 5850 5849 5848 5847 5846 5845 5844 5843 5842 5840 5838 5837 5834 5832 5830 5827 5824 5822 5819 5816 5813 5810 5807 5804 5801 5797 5794 5790 5786 5782 5778 5773 5769 5764 5760 5755 5751 5746 5742 5737 5732 5727 5722 5717 5712 5706 5701 5695 5690 5684 5678 5672 5666 5660 5655 5649 5642 5636 5629 5622 5617 5612 5605 5599 5595 5591 5587 5581 5571 5561 5551 5542 5533 5526 5517 5509 5500 5490 5480 5472 5462 5450 5436
5851 5851 5850 5849 5848 5848 5847 5846 5845 5844 5843 5842 5840 5839 5837 5835 5833 5831 5828 5826 5823 5820 5817 5814 5812 5809 5806 5802 5799 5796 5792 5788 5784 5780 5775 5771 5766 5762 5757 5753 5748 5744 5739 5734 5729 5725 5720 5714 5709 5704 5698 5692 5687 5681 5675 5669 5663 5656 5651 5645 5638 5632 5627 5620 5612 5606 5599 5592 5584 5577 5571 5565 5559 5549 5540 5531 5522 5515 5506 5497 5488 5479 5469 5459 5451 5443 5433
5850 5849 5849 5848 5847 5847 5846 5845 5844 5842 5841 5840 5839 5837 5835 5834 5832 5829 5826 5824 5821 5818 5815 5813 5810 5807 5804 5801 5798 5794 5790 5786 5782 5778 5773 5769 5764 5759 5755 5751 5746 5741 5737 5732 5727 5722 5717 5712 5706 5701 5695 5689 5684 5678 5672 5666 5660 5653 5646 5640 5634 5628 5621 5614 5607 5600 5591 5583 5576 5567 5559 5552 5546 5538 5530 5521 5513 5504 5494 5485 5476 5468 5459 5449 5440 5430 5422
5849 5848 5848 5847 5846 5846 5845 5844 5842 5841 5840 5839 5837 5836 5834 5832 5830 5827 5825 5822 5819 5816 5814 5812 5809 5806 5803 5799 5796 5793 5789 5784 5780 5775 5771 5766 5762 5757 5753 5748 5743 5739 5734 5729 5724 5719 5714 5709 5704 5698 5693 5686 5680 5675 5669 5662 5656 5650 5643 5637 5630 5623 5616 5609 5603 5597 5589 5581 5573 5564 5556 5549 5542 5534 5524 5513 5505 5497 5490 5482 5474 5465 5455 5445 5435 5425 5415
5847 5847 5846 5845 5845 5844 5843 5842 5841 5840 5839 5837 5836 5834 5832 5830 5828 5825 5823 5820 5817 5815 5812 5810 5807 5804 5801 5798 5794 5791 5787 5782 5778 5773 5769 5764 5760 5755 5751 5746 5741 5736 5731 5726 5721 5716 5711 5706 5701 5695 5689 5684 5677 5672 5666 5659 5652 5646 5640 5633 5627 5620 5613 5606 5598 5592 5586 5580 5572 5562 5553 5545 5539 5533 5524 5515 5507 5499 5490 5481 5470 5460 5450 5440 5429 5419 5409
5846 5845 5845 5844 5843 5842 5841 5841 5840 5838 5837 5836 5834 5832 5830 5828 5826 5823 5821 5818 5816 5813 5811 5808 5805 5802 5799 5796 5792 5788 5784 5780 5776 5771 5766 5762 5758 5753 5748 5744 5739 5734 5728 5723 5718 5713 5708 5702 5697 5692 5686 5680 5675 5669 5663 5656 5650 5643 5636 5630 5624 5617 5610 5603 5596 5587 5580 5574 5569 5563 5554 5544 5536 5530 5524 5515 5504 5494 5484 5474 5464 5453 5443 5432 5421 5410 5401
5845 5844 5843 5843 5842 5841 5840 5839 5838 5836 5835 5833 5832 5830 5828 5826 5823 5821 5819 5816 5814 5812 5809 5806 5804 5800 5797 5793 5790 5786 5782 5777 5773 5769 5764 5760 5755 5750 5746 5741 5736 5731 5726 5720 5715 5710 5704 5699 5694 5689 5683 5677 5671 5666 5660 5654 5648 5641 5635 5628 5621 5614 5607 5601 5594 5585 5576 5568 5562 5557 5552 5544 5533 5523 5514 5504 5494 5485 5476 5468 5459 5450 5439 5429 5421 5412 5403
5843 5843 5842 5841 5840 5839 5838 5837 5836 5834 5833 5831 5829 5828 5825 5823 5821 5819 5817 5815 5813 5810 5807 5805 5802 5798 5794 5791 5788 5783 5779 5775 5770 5766 5761 5757 5752 5747 5743 5738 5733 5728 5723 5717 5712 5707 5701 5696 5691 5685 5680 5674 5668 5663 5657 5651 5645 5638 5632 5625 5619 5612 5604 5598 5591 5584 5575 5566 5555 5546 5539 5533 5524 5515 5507 5499 5490 5482 5473 5464 5456 5450 5443 5435 5426 5417 5407
5842 5841 5840 5839 5838 5837 5836 5835 5834 5832 5831 5829 5827 5825 5823 5821 5819 5817 5816 5813 5811 5809 5806 5803 5799 5796 5792 5789 5785 5781 5776 5772 5768 5763 5759 5754 5749 5745 5740 5735 5730 5725 5720 5714 5709 5703 5698 5693 5687 5682 5676 5671 5665 5659 5653 5647 5641 5635 5628 5622 5615 5609 5602 5595 5589 5582 5573 5565 5556 5545 5536 5528 5520 5513 5507 5499 5489 5480 5472 5464 5456 5450 5444 5436 5426 5416 5405
5840 5839 5839 5838 5837 5835 5834 5833 5832 5830 5829 5827 5825 5823 5821 5819 5817 5815 5814 5812 5809 5806 5803 5800 5797 5794 5790 5786 5782 5778 5774 5770 5765 5760 5756 5751 5747 5742 5737 5732 5727 5722 5717 5711 5706 5700 5695 5689 5684 5679 5673 5667 5662 5656 5650 5644 5637 5631 5625 5619 5612 5606 5600 5593 5587 5579 5571 5562 5555 5546 5536 5527 5519 5511 5504 5496 5488 5480 5473 5465 5457 5448 5440 5430 5420 5410 5399
5839 5838 5837 5836 5834 5833 5832 5831 5830 5828 5827 5825 5823 5821 5819 5818 5816 5814 5812 5810 5807 5804 5801 5798 5795 5791 5787 5784 5780 5776 5772 5767 5763 5758 5753 5749 5744 5739 5734 5730 5724 5719 5714 5708 5702 5697 5692 5687 5681 5676 5670 5664 5658 5652 5646 5640 5634 5627 5621 5615 5608 5601 5594 5588 5581 5575 5567 5559 5551 5543 5536 5528 5520 5513 5506 5498 5490 5481 5472 5461 5450 5439 5429 5418 5408 5398 5389
5837 5836 5835 5834 5833 5831 5830 5829 5828 5826 5825 5823 5821 5819 5818 5816 5814 5812 5809 5807 5805 5802 5799 5796 5792 5789 5785 5781 5778 5774 5769 5765 5760 5756 5751 5746 5742 5736 5731 5727 5722 5716 5711 5705 5700 5694 5689 5684 5678 5672 5667 5661 5655 5649 5643 5636 5630 5623 5616 5610 5603 5596 5588 5581 5575 5569 5564 5558 5551 5545 5540 5533 5524 5515 5506 5497 5486 5474 5463 5451 5438 5425 5415 5407 5398 5389 5380
5835 5834 5833 5832 5831 5830 5828 5827 5826 5824 5823 5821 5819 5817 5816 5814 5812 5809 5807 5805 5802 5800 5796 5793 5790 5787 5783 5779 5775 5771 5767 5763 5758 5753 5749 5744 5739 5734 5729 5724 5719 5714 5708 5703 5697 5692 5686 5681 5675 5669 5663 5657 5651 5645 5639 5632 5625 5619 5612 5604 5597 5590 5582 5575 5568 5561 5555 5549 5543 5535 5528 5521 5513 5503 5494 5485 5475 5464 5453 5442 5431 5420 5410 5402 5393 5383 5374
5833 5832 5831 5830 5829 5827 5826 5825 5824 5822 5820 5819 5817 5815 5814 5812 5809 5807 5805 5803 5800 5797 5794 5791 5788 5784 5780 5776 5772 5768 5765 5760 5756 5751 5746 5741 5736 5731 5726 5721 5716 5711 5705 5700 5694 5688 5683 5678 5672 5666 5660 5654 5647 5641 5635 5628 5621 5614 5606 5599 5592 5584 5577 5569 5561 5553 5545 5536 5527 5519 5510 5501 5493 5485 5477 5469 5463 5455 5447 5439 5428 5417 5406 5396 5387 5378 5368
5830 5829 5828 5827 5826 5825 5824 5823 5821 5820 5818 5816 5815 5813 5811 5809 5807 5805 5803 5800 5798 5795 5792 5789 5786 5782 5778 5774 5770 5766 5762 5758 5753 5748 5743 5738 5733 5728 5723 5718 5713 5707 5702 5697 5691 5686 5680 5675 5669 5663 5657 5650 5644 5637 5631 5624 5617 5609 5601 5594 5587 5579 5572 5564 5556 5549 5541 5531 5522 5514 5505 5495 5486 5477 5468 5460 5452 5446 5439 5432 5424 5413 5401 5390 5381 5373 5364
5828 5827 5826 5825 5824 5823 5822 5820 5819 5818 5816 5814 5812 5811 5809 5807 5805 5803 5800 5798 5795 5792 5789 5786 5783 5779 5775 5771 5768 5764 5759 5755 5750 5746 5741 5736 5731 5726 5720 5715 5710 5704 5699 5694 5688 5683 5677 5672 5666 5660 5654 5647 5641 5634 5627 5620 5613 5605 5598 5591 5583 5576 5568 5561 5553 5545 5537 5529 5521 5512 5503 5494 5484 5475 5466 5457 5448 5438 5430 5423 5416 5408 5398 5386 5375 5367 5360
5826 5825 5824 5823 5822 5821 5819 5818 5817 5815 5813 5812 5810 5808 5806 5805 5803 5800 5798 5795 5792 5789 5786 5783 5780 5776 5773 5769 5765 5761 5756 5752 5747 5742 5738 5733 5728 5723 5718 5712 5707 5701 5696 5690 5685 5679 5674 5668 5663 5657 5650 5644 5637 5631 5624 5617 5610 5602 5595 5587 5580 5573 5566 5558 5551 5543 5534 5526 5518 5509 5501 5492 5482 5471 5462 5454 5445 5435 5426 5417 5410 5402 5394 5385 5373 5362 5354
5823 5822 5821 5820 5819 5818 5817 5815 5814 5813 5811 5809 5808 5806 5804 5802 5800 5797 5795 5792 5789 5786 5783 5780 5777 5773 5770 5766 5762 5758 5753 5749 5743 5739 5734 5730 5725 5720 5715 5709 5704 5699 5693 5688 5682 5676 5670 5664 5658 5653 5647 5640 5634 5627 5621 5614 5607 5599 5591 5584 5577 5570 5563 5555 5547 5540 5531 5523 5514 5506 5497 5489 5480 5469 5459 5450 5442 5434 5425 5417 5409 5401 5392 5383 5373 5361 5350
5821 5820 5819 5817 5816 5816 5815 5813 5812 5810 5809 5807 5805 5803 5801 5799 5797 5795 5792 5789 5786 5783 5780 5777 5774 5770 5767 5763 5759 5755 5750 5745 5740 5735 5731 5727 5722 5717 5711 5706 5700 5695 5690 5685 5679 5673 5667 5661 5655 5649 5643 5637 5630 5623 5617 5610 5603 5596 5589 5581 5574 5567 5560 5552 5545 5537 5530 5521 5513 5505 5497 5488 5479 5470 5459 5449 5439 5431 5422 5413 5406 5398 5389 5379 5370 5360 5348
5818 5817 5816 5815 5814 5813 5812 5811 5810 5808 5807 5805 5803 5801 5799 5796 5794 5792 5789 5787 5783 5780 5778 5775 5771 5767 5764 5760 5756 5751 5747 5742 5737 5732 5727 5723 5719 5714 5708 5703 5697 5692 5687 5681 5676 5671 5665 5658 5652 5646 5640 5633 5627 5620 5613 5606 5600 5593 5586 5579 5571 5564 5557 5549 5542 5534 5527 5519 5511 5503 5495 5486 5477 5468 5458 5447 5436 5427 5417 5408 5398 5391 5383 5374 5365 5356 5345
5816 5815 5814 5813 5812 5812 5810 5809 5808 5806 5804 5802 5800 5798 5796 5794 5792 5789 5786 5784 5781 5778 5775 5772 5768 5765 5761 5757 5753 5748 5744 5739 5734 5729 5724 5720 5716 5711 5705 5700 5694 5689 5684 5678 5672 5667 5661 5654 5648 5642 5636 5630 5624 5617 5610 5603 5596 5589 5582 5575 5568 5561 5553 5546 5538 5531 5523 5516 5508 5499 5492 5484 5475 5465 5456 5446 5434 5423 5414 5404 5394 5385 5377 5367 5357 5347 5338
5814 5813 5812 5811 5810 5810 5808 5807 5805 5803 5801 5799 5797 5795 5793 5791 5789 5786 5783 5781 5778 5775 5772 5769 5766 5762 5758 5754 5749 5745 5740 5736 5731 5726 5721 5717 5713 5708 5702 5696 5691 5685 5680 5674 5668 5663 5657 5650 5644 5638 5633 5627 5620 5614 5607 5600 5593 5586 5578 5571 5564 5556 5549 5542 5534 5527 5519 5512 5504 5496 5488 5480 5472 5463 5454 5445 5433 5421 5411 5401 5391 5380 5371 5363 5353 5343 5333
5811 5811 5810 5809 5808 5807 5806 5804 5803 5801 5799 5796 5794 5793 5791 5788 5786 5783 5780 5778 5775 5772 5769 5766 5763 5759 5755 5751 5746 5742 5737 5733 5728 5723 5718 5714 5709 5705 5699 5693 5688 5682 5676 5670 5664 5659 5653 5647 5641 5635 5629 5623 5616 5610 5603 5596 5589 5582 5574 5567 5560 5552 5545 5538 5530 5523 5515 5507 5499 5491 5483 5475 5468 5459 5450 5441 5432 5421 5409 5398 5387 5376 5365 5357 5349 5339 5329
5810 5809 5808 5807 5806 5805 5803 5802 5800 5798 5796 5794 5792 5790 5788 5785 5783 5780 5778 5775 5773 5770 5767 5763 5760 5756 5752 5748 5743 5739 5734 5730 5725 5720 5715 5710 5706 5701 5695 5689 5684 5679 5673 5667 5661 5655 5649 5643 5637 5631 5625 5618 5612 5606 5599 5592 5585 5578 5571 5563 5556 5548 5541 5534 5526 5518 5510 5502 5494 5486 5477 5469 5461 5453 5444 5435 5427 5418 5407 5395 5383 5372 5361 5351 5343 5334 5325
5808 5807 5806 5805 5804 5803 5801 5800 5798 5796 5794 5791 5789 5787 5785 5782 5780 5777 5775 5772 5770 5767 5764 5761 5757 5753 5749 5745 5740 5736 5731 5727 5722 5717 5712 5707 5702 5697 5692 5686 5680 5674 5669 5663 5657 5652 5645 5639 5633 5627 5621 5614 5607 5601 5594 5588 5581 5574 5566 5559 5552 5544 5537 5529 5522 5513 5505 5496 5488 5480 5471 5462 5454 5446 5436 5427 5419 5411 5402 5391 5381 5370 5359 5349 5340 5331 5322
5806 5805 5804 5803 5802 5800 5799 5797 5795 5793 5791 5788 5786 5784 5782 5779 5777 5775 5772 5769 5767 5764 5761 5757 5753 5750 5746 5741 5737 5733 5728 5724 5719 5714 5709 5703 5698 5693 5688 5683 5677 5671 5666 5660 5654 5648 5642 5635 5629 5623 5617 5611 5604 5597 5590 5584 5577 5570 5562 5555 5548 5540 5532 5525 5518 5509 5500 5492 5484 5475 5467 5458 5449 5440 5431 5421 5412 5404 5397 5390 5381 5370 5359 5348 5337 5328 5319
5803 5802 5802 5801 5799 5798 5796 5795 5792 5790 5788 5786 5783 5781 5779 5776 5774 5772 5769 5767 5764 5761 5757 5754 5750 5746 5742 5738 5734 5730 5725 5721 5716 5711 5706 5700 5695 5690 5685 5679 5674 5668 5662 5657 5651 5644 5637 5631 5625 5619 5613 5606 5600 5593 5586 5579 5572 5565 5557 5550 5543 5535 5527 5520 5513 5506 5498 5489 5480 5472 5463 5454 5445 5436 5427 5417 5408 5399 5391 5384 5376 5366 5354 5343 5333 5325 5317